STARLINK-34356, 64303

Orbit data source: Space-Track

STARLINK-34356, 64303 is a payload satellite owned by SpaceX/Seattle (US) in LEO that was launched on Sun, 08 Jun 2025 UTC via an FALCON 9 launch vehicle from the Air Force Western Test Range (AFWTR). Payload-class satellites include a variety of spacecraft equipped with specific instruments for various scientific and technological missions. These include communications satellites like Starlink; space stations such as the ISS; scientific satellites like the Hubble; Earth observation satellites from companies like Planet Labs, Umbra, and HawkEye 360; GPS; miniature CubeSats for education and research; and military/defense satellites.

Loading next visibility...
Identifier
64303, 2025-123N
Orbit
LEO
Country
Flag of USUS
Related business
Manufacturer
SpaceX/Seattle
Mission
Operational Commercial Communications
Bus & Motor
STARLINK V2MO, Unknown motor
Mass
575 kg wet, ~530 kg dry
Launch date (UTC)
2025-06-08 (10 months ago)
Launch vehicle
FALCON 9
Launch site
Air Force Western Test Range (AFWTR)
Object type
Payload
Rocket body
Debris
Shape & HBR
Box + 2 Pan, 17.7 m
Radar Cross Section
36.964 m², Large (>1 m²)

Expand to show TLE details & history
Last TLE update: 17 hours ago

TLE from 17 hours ago
0 STARLINK-34356
1 64303U 25123N   26093.53080168  .00004578  00000-0  39108-3 0  9998
2 64303  70.0008 131.6577 0003789 270.0548  90.0177 14.98338854 45349
Epoch: 2026-04-03T12:44Z
TLE epoch observation values (Epoch: 2026-04-03T12:44:21.265Z)
Latitude
0.00001°
Longitude
108.7055°
Altitude
574.454 km
Speed
7.574 km/s
True Right ascension
08h 46m 37s
True Declination
0° 00' 00"
Sunlit
Object was in full shadow at epoch
Visualization orbit readout
Latitude
Unknown
Longitude
Unknown
Altitude
Unknown
Speed
Unknown
Apparent Right ascension
Unknown
Apparent Declination
Unknown
Sunlit
N/A
Visualization observer readout
Local Sidereal Time
11:24:47
Azimuth
Unknown
Elevation
Unknown
Doppler factor
Unknown
Orbital elements
Apogee altitude
572.609 km
Perigee altitude
567.344 km
Semi-major axis
6,948.114 km
Eccentricity
0.00038
Inclination
70.0008°
RAAN
131.6577°
Arg. of periapsis
270.0548°
True anomaly
90.06112°
Mean anomaly
90.0177°
Eccentric anomaly
90.03941°
Mean motion
3.74751 °/min
Orbital period
96.06 mins
BSTAR
0.00039108
Loading maneuver chart data...
Computing Atmospheric mass density...
Loading historical data...
Loading historical data...
Loading historical data...
Loading historical data...
Loading historical data...
Loading historical data...
Loading historical data...

Documentation

Showing up to 5 results
|